Regional Weather Roundup
Issued by NWS Kansas City/Pleasant Hill, MO

Home | Current Version | Previous Version | Text Only | Print | Product List | Glossary On
Versions: 1 2 3 4 5 6 7 8 9 10 11 12 13 14 15 16 17 18 19 20 21 22 23 24 25 26 27 28 29 30 31 32 33 34 35 36 37 38 39 40 41 42 43 44 45 46 47 48 49 50
000
ASUS43 KEAX 292010
RWREAX

WEATHER ROUNDUP FOR EASTERN KANSAS AND NORTHWEST MISSOURI
NATIONAL WEATHER SERVICE KANSAS CITY/PLEASANT HILL MO
300 PM CDT MON AUG 29 2016

KSZ040-057-103>105-MOZ028-029-037-043-292100-
...KANSAS CITY METROPOLITAN AREA...

CITY           SKY/WX    TMP DP  RH WIND       PRES   REMARKS
K.C. INTL      CLOUDY    89  70  53 SE5       30.15F HX  94
K.C. DOWNTOWN  CLOUDY    90  73  57 NW7       30.12F HX  98
LEES SUMMIT    MOSUNNY   88  70  55 VRB5      30.15F HX  93
OLATHE - IXD   SUNNY     87  70  56 SE5       30.15F HX  92
OLATHE - OJC   MOSUNNY   85  66  53 NE5       30.15F
LAWRENCE       MOSUNNY   90  71  53 SE7       30.13F HX  96

$$

MOZ001>008-011>017-020>025-030>033-038>040-044>046-053-054-292100-
...NORTHERN AND CENTRAL MISSOURI...

CITY           SKY/WX    TMP DP  RH WIND       PRES   REMARKS
ST. JOSEPH     SUNNY     88  73  61 CALM      30.13F HX  95
MOSBY          MOCLDY    90  68  48 SE5       30.14F HX  93
WHITEMAN AFB   PTSUNNY   91  73  57 SE7       30.13F HX  99
CLINTON        MOSUNNY   88  72  58 CALM      30.14F HX  94
SEDALIA        CLOUDY    86  69  56 E9        30.16F HX  90
WARSAW         NOT AVBL
CHILLICOTHE      N/A     90  73  57 SE6       30.15F HX  98
KIRKSVILLE     SUNNY     88  71  57 E8        30.16F HX  94

$$

MOZ041-047>049-056>058-063>065-088>090-097-292100-
...EASTERN AND SOUTHERN MISSOURI...

CITY           SKY/WX    TMP DP  RH WIND       PRES   REMARKS
ST. LOUIS INTL MOSUNNY   93  70  46 E5        30.15F HX  99
SPIRIT OF STL  MOSUNNY   92  73  53 VRB3      30.13F HX 100
COLUMBIA       LGT RAIN  80  75  84 N9        30.16F
JEFFERSON CITY CLOUDY    90  72  55 E7        30.13F HX  97
ROLLA          CLOUDY    87  72  60 E7        30.16F HX  93
OSAGE BEACH    SUNNY     89  72  56 E7        30.15F HX  96
SPRINGFIELD    PTSUNNY   89  67  47 NE10      30.14F HX  92
BRANSON        PTSUNNY   90  68  48 SE10      30.16F HX  93
JOPLIN         MOSUNNY   91  69  48 VRB5      30.12F HX  96
WEST PLAINS    SUNNY     88  70  55 NE6       30.17F HX  93

$$

IAZ060-094-KSZ022-034>040-054-083-096-NEZ052-066-093-292100-
...KANSAS...SOUTHEAST NEBRASKA AND IOWA...

CITY           SKY/WX    TMP DP  RH WIND       PRES   REMARKS
TOPEKA         MOSUNNY   90  69  50 SE3       30.13F HX  94
MANHATTAN      PTSUNNY   90  70  51 SE9       30.13F HX  95
EMPORIA        LGT RAIN  82  73  74 SE6       30.15F
CHANUTE        CLOUDY    86  73  65 W3        30.14F HX  93
WICHITA        PTSUNNY   88  67  49 SE8       30.13F HX  91
OMAHA          PTSUNNY   86  71  60 CALM      30.14F HX  91
LINCOLN        PTSUNNY   87  71  58 E3        30.15F HX  93
FALLS CITY     MOSUNNY   90  70  51 SE7       30.13F HX  95
LAMONI         MOSUNNY   87  73  62 S7        30.16F HX  94
DES MOINES     PTSUNNY   84  73  69 SE9       30.16F THUNDER HX  90

$$




USA.gov is the U.S. government's official web portal to all federal, state and local government web resources and services.